SCP
0 0 0 0 0 0 1 0 0 0 0 0 0 0 0 0 0 0 0 0 0 0 0 0 0 0 0 0 0 0 0 0 0 0 0 0 0 0 0 0 0 0 0
1 0 0 0 0 1 1 1 0 0 0 0 0 0 0 0 0 0 0 0 0 0 0 0 0 0 0 0 0 0 0 0 0 0 0 0 0 0 0 0 0 0 0
1 1 0 0 0 1 1 1 1 1 0 0 0 0 0 0 0 0 0 0 0 0 0 0 0 0 0 0 0 0 0 0 0 0 0 0 0 0 0 0 0 0 0
1 1 1 0 0 1 1 1 1 1 1 0 0 0 0 0 1 1 1 1 0 0 0 0 0 0 0 0 0 0 0 0 0 0 0 0 0 0 0 0 0 0 0
1 1 1 1 1 1 1 1 1 1 1 1 0 0 0 1 1 1 1 1 1 0 0 0 0 0 0 0 0 0 0 0 0 0 0 0 0 0 0 0 0 0 0
1 1 1 1 1 1 1 1 1 1 1 1 1 1 1 1 1 1 1 1 1 1 0 0 0 0 0 0 0 0 0 0 0 0 0 0 0 0 0 0 0 0 0
1 1 1 1 1 1 1 1 1 1 1 1 1 1 1 1 1 1 1 1 1 1 1 1 0 0 0 0 0 0 0 0 0 0 0 0 0 0 0 0 0 0 0
1 1 1 1 1 1 1 1 1 1 1 1 1 1 1 1 1 1 1 1 1 0 0 0 0 0 0 0 0 0 0 0 0 0 0 0 0 0 0 0 0 0 0
1 1 1 1 1 1 1 1 1 2 2 1 1 1 1 1 1 1 1 1 0 0 0 0 0 0 0 0 0 0 0 0 0 0 0 0 0 0 0 0 0 0 0
1 1 1 1 1 1 1 1 2 2 2 1 1 1 1 1 1 1 1 1 1 0 0 0 0 0 0 0 0 0 0 0 0 0 0 0 0 0 0 0 0 0 0
0 0 0 1 1 1 1 1 2 2 1 1 1 1 1 1 1 1 1 1 1 1 1 0 0 0 0 0 0 0 0 0 0 0 0 0 0 0 0 0 0 0 0
1 1 1 1 1 1 1 1 2 1 1 1 1 1 1 1 1 1 1 1 1 1 0 0 0 0 0 0 0 0 0 0 0 0 0 0 0 0 0 0 0 0 0
1 1 1 1 1 2 2 2 2 1 1 1 1 1 1 1 1 1 1 1 1 1 0 0 0 0 0 0 0 0 0 0 0 0 0 0 0 0 0 0 0 0 0
1 1 2 2 2 2 2 2 2 1 1 1 1 1 1 1 1 1 1 1 1 1 0 0 0 0 0 0 0 0 0 0 0 0 0 0 0 0 0 0 0 0 0
1 2 2 2 2 2 2 2 2 2 2 2 1 1 1 1 1 1 1 1 1 1 1 0 0 0 0 0 0 0 0 0 0 0 0 0 0 0 0 0 0 0 0
2 2 2 2 2 2 2 2 2 2 2 2 2 2 2 1 1 1 1 1 1 1 1 1 0 0 0 0 0 0 0 0 0 0 0 0 0 0 0 0 0 0 0
2 2 2 2 2 3 3 3 2 2 2 2 2 2 2 2 1 1 1 1 1 1 1 1 1 0 0 0 0 0 0 0 0 0 0 0 0 0 0 0 0 0 0
2 2 2 2 2 2 3 2 2 2 2 2 2 2 2 2 2 2 2 2 1 1 1 1 1 1 0 0 0 0 0 0 0 0 0 0 0 0 0 0 0 0 0
2 2 2 2 2 2 2 2 2 2 2 3 3 3 3 2 2 2 2 2 2 2 1 1 1 1 0 0 0 0 0 0 0 0 0 0 0 0 0 0 0 0 0
2 2 2 2 2 2 3 2 2 2 2 3 3 3 3 3 3 2 2 2 2 2 1 1 1 1 1 0 0 0 0 0 1 1 0 0 0 0 0 0 0 1 0
2 2 2 2 3 3 3 3 3 3 3 3 3 3 3 3 3 3 3 2 2 2 2 1 1 1 1 1 0 0 0 1 1 1 1 0 0 0 0 0 0 0 0
2 2 2 3 3 3 3 3 3 3 3 3 3 3 3 3 2 3 3 2 2 2 2 1 1 1 1 1 0 0 0 0 1 1 1 0 0 0 0 0 0 0 0
2 2 2 3 3 3 3 4 4 4 4 4 4 3 3 3 2 2 2 2 2 2 2 2 1 1 1 1 1 0 0 0 0 0 0 0 0 0 0 0 0 0 0
3 3 3 3 3 3 3 4 4 4 4 4 3 3 3 3 3 2 2 2 2 2 2 1 1 1 1 1 1 0 0 0 0 0 0 0 0 0 0 0 0 0 0
3 3 3 3 3 4 4 4 4 4 4 4 3 3 2 2 2 2 2 1 1 1 1 1 1 1 1 1 0 0 0 0 0 0 0 0 0 0 0 0 0 1 1
3 3 3 3 3 4 4 4 4 4 4 3 3 2 2 2 2 2 1 1 1 1 1 1 1 0 0 0 0 0 0 0 0 0 0 0 1 1 1 1 1 1 1
Wind_Speed
11 10 9 9 9 8 6 5 4 4 2 1 1 2 2 1 2 3 4 4 3 3 3 3 2 2 3 2 2 2 2 1 1 1 2 1 1 1 1 1 1 1 1
11 10 9 9 9 9 7 6 4 4 3 2 1 1 1 2 3 3 3 3 3 2 3 3 2 2 2 2 2 2 1 1 1 1 1 1 0 1 1 1 1 1 1
13 12 10 9 10 10 8 6 5 4 3 3 2 2 2 2 2 2 2 2 2 2 2 3 2 2 1 2 1 1 0 0 1 1 1 1 1 1 1 1 2 2 1
14 13 11 10 9 10 9 7 6 5 4 3 2 2 2 2 2 2 2 2 2 2 2 2 1 1 1 1 1 1 0 1 1 1 1 1 2 2 1 1 1 1 1
14 13 12 10 9 10 9 8 7 5 4 3 2 2 1 2 2 2 3 2 2 2 2 2 1 1 1 1 0 1 0 0 1 0 0 0 1 1 2 1 1 1 1
14 13 12 11 9 9 9 9 8 6 5 4 3 2 1 2 2 2 2 2 2 2 2 2 2 1 1 1 1 1 0 1 1 1 1 1 1 1 1 2 1 1 0
13 13 13 12 10 10 9 9 9 7 6 5 3 3 2 2 2 1 2 2 2 2 2 2 2 1 1 1 1 1 1 1 1 1 1 1 1 0 1 2 1 1 0
13 13 13 13 12 11 9 10 9 8 7 5 4 3 3 2 2 2 2 1 2 2 3 3 2 2 1 1 2 1 1 1 1 1 1 1 2 1 1 2 2 1 0
14 14 14 13 13 12 11 10 10 8 7 6 5 4 3 2 2 2 2 2 1 3 3 3 3 2 2 1 2 1 1 2 1 2 2 1 1 1 0 1 2 2 1
13 13 12 12 12 12 11 10 10 9 8 7 6 5 4 3 2 2 3 3 3 2 3 3 2 2 2 2 1 1 1 1 1 1 2 2 2 2 1 1 0 1 2
13 13 12 11 11 11 11 10 10 9 8 7 5 5 5 4 4 3 3 3 3 3 3 3 3 2 2 2 2 1 1 1 1 1 2 2 2 2 2 1 1 1 2
11 11 11 12 11 11 11 10 10 10 8 7 6 5 5 5 5 4 4 3 3 3 3 3 3 3 3 2 2 2 2 2 2 2 2 2 2 2 2 1 1 1 1
8 9 9 9 9 9 9 10 9 10 9 8 8 6 6 5 5 5 4 4 4 3 3 3 3 3 3 2 2 2 2 2 2 2 2 2 2 2 1 2 2 2 1
6 8 8 8 8 8 8 8 8 9 9 8 8 7 6 5 5 5 5 4 4 4 3 3 3 3 3 2 2 2 2 2 2 2 3 3 2 2 1 1 1 1 1
6 7 8 8 8 8 8 8 8 8 8 8 7 7 7 6 5 5 5 5 5 5 3 3 3 2 2 1 1 1 2 2 2 2 3 3 4 5 4 2 2 2 2
5 7 7 7 8 8 8 7 7 7 7 8 7 7 7 7 6 5 5 5 5 4 4 3 3 3 2 3 4 2 2 1 1 1 2 2 3 5 6 6 5 4 2
4 4 5 6 6 7 7 7 7 7 7 7 7 7 7 7 7 7 6 6 5 5 4 4 4 4 3 4 4 3 1 2 2 2 2 1 3 3 3 4 4 4 4
5 5 5 5 5 6 7 6 7 7 7 7 7 7 7 7 7 6 6 5 5 4 4 4 4 4 3 3 3 2 1 2 2 2 2 2 3 4 3 2 3 3 3
4 4 5 5 5 5 6 6 6 7 7 7 7 7 7 7 6 6 6 5 5 4 4 4 3 4 2 2 2 1 1 2 2 2 3 2 2 4 3 2 2 2 2
3 3 4 4 5 5 6 6 7 7 8 7 7 7 7 7 7 6 6 5 5 4 4 4 4 4 3 2 2 0 1 2 2 2 2 3 3 3 3 1 1 1 1
2 2 3 3 4 5 6 6 6 5 5 6 7 7 6 6 6 6 5 5 5 4 4 4 4 3 3 3 3 2 1 1 1 2 1 2 3 2 2 1 0 1 1
2 2 2 3 4 5 6 6 5 5 5 6 7 7 7 6 6 6 5 5 5 5 5 4 4 3 3 3 3 3 2 1 1 0 2 2 3 1 1 1 1 2 1
1 2 2 4 4 5 6 6 5 6 6 6 6 6 6 5 6 6 6 5 5 5 5 5 4 3 3 3 4 4 3 1 1 1 2 2 3 1 1 3 3 2 1
1 2 3 4 4 4 5 5 6 6 6 6 6 6 6 6 5 5 5 5 4 5 5 4 4 4 3 3 2 3 3 3 3 2 2 2 3 2 2 1 1 1 1
1 1 2 3 4 4 4 6 6 6 7 6 6 6 6 6 5 3 2 3 2 2 3 3 3 4 4 3 3 2 2 1 1 1 1 2 2 2 2 2 1 1 0
1 2 3 3 4 4 5 5 6 6 6 6 6 5 5 5 5 5 4 6 4 5 5 4 4 4 6 7 5 4 2 3 3 2 2 2 2 2 2 2 2 1 1
Wind_Direction
154 151 150 140 132 127 126 123 124 120 128 124 129 122 114 99 90 85 76 73 64 65 67 70 95 90 100 103 114 115 134 140 127 103 83 92 122 132 107 96 103 112 125
157 155 156 149 142 138 136 133 134 139 149 131 125 119 111 104 102 89 96 90 78 72 78 77 72 78 104 100 95 108 133 160 149 131 123 127 115 29 137 128 122 101 100
162 161 163 159 154 150 151 154 150 146 152 149 153 130 117 95 85 97 100 93 89 86 75 81 64 61 79 105 120 134 132 164 190 177 149 148 163 133 88 90 91 85 79
164 164 167 165 163 157 155 146 144 147 152 166 172 157 142 126 125 127 121 123 117 102 96 99 80 72 65 102 187 137 231 193 234 223 197 174 155 154 135 66 92 104 84
165 167 168 165 164 159 155 148 142 148 154 173 164 166 138 124 128 130 133 130 132 128 116 118 118 96 91 114 26 82 316 330 315 304 266 217 208 171 154 157 122 85 80
166 166 165 160 166 163 158 151 149 152 157 172 172 160 143 123 126 129 138 149 121 105 100 95 87 82 85 92 74 88 76 17 352 334 303 255 225 185 154 148 145 122 70
165 165 164 163 166 165 160 151 151 156 163 174 170 160 160 149 151 162 139 137 128 125 109 98 89 74 67 85 84 87 52 14 343 329 322 319 305 196 136 137 151 158 164
167 167 168 165 168 166 161 154 154 161 164 167 162 158 165 169 161 151 143 123 121 121 118 120 115 100 74 83 90 83 78 52 4 351 355 340 318 349 121 145 142 141 131
167 167 168 169 169 168 166 162 156 159 162 162 157 151 153 146 130 125 127 110 106 120 114 116 115 114 101 84 97 75 56 54 26 7 12 357 332 345 1 129 147 150 162
166 165 168 167 166 166 164 161 156 159 162 164 169 161 161 147 139 127 102 99 94 92 112 110 105 102 95 85 83 84 74 74 42 23 18 14 8 8 12 58 111 136 145
168 165 165 164 162 164 163 160 158 160 164 166 165 154 154 151 147 138 126 121 114 109 109 108 103 101 96 93 91 86 70 73 50 32 53 45 30 17 14 24 41 79 112
163 157 161 160 163 164 163 159 159 163 165 161 157 158 151 155 157 143 131 128 120 116 112 111 106 104 98 93 90 82 66 67 62 50 51 39 34 39 30 21 19 56 116
155 149 150 153 156 159 158 159 162 165 166 163 164 161 157 159 155 143 136 135 131 125 117 109 103 95 91 88 85 80 69 67 65 59 58 47 41 30 35 50 37 46 79
140 140 137 145 149 150 151 154 159 163 162 161 166 164 164 161 156 147 145 145 137 131 123 117 111 107 96 79 87 103 94 81 70 57 57 50 51 34 23 58 54 71 81
138 131 138 148 148 150 151 157 163 163 161 159 164 164 162 156 154 151 150 147 146 144 131 125 119 113 101 57 42 108 115 102 97 90 89 78 74 66 58 49 49 63 81
147 139 138 143 150 154 157 160 160 159 156 159 163 159 158 156 157 154 152 146 142 137 134 129 123 113 89 52 45 38 88 90 88 82 99 114 98 94 88 77 67 66 84
139 143 149 150 153 154 155 160 158 156 158 160 160 159 159 160 162 162 156 152 151 149 143 138 133 114 68 44 43 35 63 69 55 46 37 55 70 84 99 105 92 68 59
155 157 160 155 158 159 154 159 162 159 160 163 164 161 163 166 161 157 158 154 153 154 150 144 143 126 92 55 40 25 98 78 66 55 49 60 49 37 31 79 84 73 51
142 146 156 163 160 158 157 161 165 166 164 167 166 162 162 163 160 162 161 157 154 153 153 150 145 128 105 77 81 24 152 115 96 77 58 59 64 28 36 88 99 93 90
119 137 161 164 160 158 157 165 174 173 172 170 163 157 158 164 165 163 156 152 151 154 151 147 143 138 135 112 115 151 197 155 142 119 99 71 55 35 30 91 111 100 71
124 136 145 154 162 160 155 167 171 175 168 159 154 154 153 158 158 152 151 150 149 148 151 148 147 146 145 134 123 122 258 231 172 157 133 98 83 58 5 351 90 231 264
144 157 155 158 158 159 158 164 166 163 157 151 154 153 155 166 162 153 155 158 159 159 164 163 163 156 146 139 137 133 142 319 327 129 119 125 125 102 324 296 282 287 272
163 178 178 169 161 160 162 167 158 150 147 148 154 154 155 155 157 160 164 169 173 178 177 174 171 166 150 133 132 138 135 120 123 82 99 155 173 180 229 217 238 257 226
188 186 178 169 157 159 163 155 146 146 149 155 155 157 159 166 165 166 173 179 184 186 180 179 173 166 159 156 157 157 148 146 155 167 169 184 208 241 263 240 228 211 207
209 190 177 165 154 146 147 144 144 151 157 159 161 168 170 164 158 148 142 171 148 175 177 179 172 170 165 160 151 154 165 178 139 155 198 190 182 195 196 173 165 169 182
202 199 185 177 163 154 147 149 153 158 161 167 171 174 170 162 162 150 117 53 80 97 109 120 134 132 144 149 142 140 142 148 148 173 209 198 195 195 186 172 167 160 161